Location: Peterborough
(44.3091°N, 78.3197°W)
Time: 06:17:51
(UTC-04:00)

Vanguard 3 - Pass Details

Date: 24 February 2024
Orbit: 510 x 3234 km, 33.3° (Epoch: 24 April)

Event Time Altitude Azimuth Distance (km) Brightness Sun altitude
Rises 19:25:26 0° 213° (SSW) 6,629 12.2 -17.0°
Reaches altitude 10° 19:30:11 10° 205° (SSW) 5,862 11.8 -17.9°
Maximum altitude 19:46:19 36° 148° (SSE) 4,370 10.5 -20.8°
Enters shadow 19:54:15 27° 112° (ESE) 4,706 10.4 -22.2°
